Hourly Data Report for October 15, 2015

All times are specified in Local Standard Time (LST). Add 1 hour to adjust for Daylight Saving Time where and when it is observed.

CAPE DORSET A
NUNAVUT

64°13'49.000" N
76°31'30.000" W
48.20 m
2400637
71366
YTE

Download Data

Hourly Data (October 2015)
Hourly Data Report for October 15, 2015
Temp Definition
°C
Dew Point Temp Definition
°C
Rel Hum Definition
%
Wind Dir Definition
10's deg

Wind Spd Definition
km/h
Visibility Definition
km
Stn Press Definition
kPa
Hmdx Definition


Wind Chill Definition


Weather Definition


TIME
00:00 Legend Double Dagger -3.3 -5.3 86 27 39 16.1 99.24   -12 LegendNANA
01:00 Legend Double Dagger -3.1 -5.0 87 28 35 16.1 99.28   -11 LegendNANA
02:00 Legend Double Dagger -3.8 -6.0 85 29 43 16.1 99.30   -13 LegendNANA
03:00 Legend Double Dagger -3.7 -5.5 87 29 32 16.1 99.36   -12 LegendNANA
04:00 Legend Double Dagger -3.9 -5.9 86 29 35 16.1 99.40   -12 LegendNANA
05:00 Legend Double Dagger -3.8 -6.4 82 29 35 16.1 99.44   -12 LegendNANA
06:00 Legend Double Dagger -3.9 -6.4 83 28 30 16.1 99.47   -12 LegendNANA
07:00 Legend Double Dagger -4.4 -6.6 85 29 34 16.1 99.53   -13 LegendNANA
08:00 Legend Double Dagger -4.7 -7.0 84 29 30 16.1 99.61   -13 LegendNANA
09:00 Legend Double Dagger -4.5 -6.7 85 29 35 16.1 99.61   -13 LegendNANA
10:00 Legend Double Dagger -4.5 -7.1 82 27 34 16.1 99.64   -13 LegendNANA
11:00 Legend Double Dagger -4.7 -7.5 81 28 32 16.1 99.69   -13 LegendNANA
12:00 Legend Double Dagger -4.4 -6.9 83 28 30 16.1 99.75   -12 LegendNANA
13:00 Legend Double Dagger -4.6 -7.4 81 28 41 16.1 99.79   -14 LegendNANA
14:00 Legend Double Dagger -4.5 -6.6 85 28 32 16.1 99.87   -13 LegendNANA
15:00 Legend Double Dagger -4.7 -7.3 82 27 34 16.1 99.90   -13 LegendNANA
16:00 Legend Double Dagger -5.0 -7.8 81 28 30 16.1 100.01   -13 Snow
17:00 Legend Double Dagger -5.1 -7.9 81 28 35 16.1 100.01   -14 LegendNANA
18:00 Legend Double Dagger -5.2 -7.7 83 29 26 16.1 100.10   -13 Snow
19:00 Legend Double Dagger -5.3 -7.6 84 29 28 16.1 100.17   -13 LegendNANA
20:00 Legend Double Dagger -5.4 -8.2 81 29 26 16.1 100.21   -13 LegendNANA
21:00 Legend Double Dagger -5.6 -8.2 82 29 28 16.1 100.21   -14 LegendNANA
22:00 Legend Double Dagger -5.6 -8.4 81 28 28 16.1 100.21   -14 LegendNANA
23:00 Legend Double Dagger -5.7 -9.1 77 27 28 16.1 100.23   -14 LegendNANA

Notes on Data Quality.

Legend

  • E = Estimated
  • M = Missing
  • NA = Not Available
  • ‡ = Partner data that is not subject to review by the National Climate Archives
Date modified: